Find Kosmos-2009

NORAD ID: 19903 Int'l Des: 1989-025 Owner: UNKS Country: SU operational
LEOCIRCULAR

实时位置

正在加载3D地球...

关于 Kosmos-2009

正在加载描述...

即将过境

Passes for default location (London). Set your location on the main map for personalized predictions.

高度历史

Loading altitude history...

两行轨道根数

1 19903U 89025B 26131.81888248 .00000006 00000-0 13514-3 0 9999
2 19903 74.0074 152.6844 0040643 46.2251 126.2597 12.55948770702394
Epoch: May 11, 2026 • Age: 8 hours

当前状态

高度 1490.9 km
速度 7.11 km/s
星下点 -73.27°S, 117.06°E
发射日期 Mar 24, 1989
运行时间 37.1 years
类型 other

技术详情

分类 Payload
质量 60.00 kg
干质量 60.00 kg
总质量 60.00 kg
长度 0.80 m
直径 0.80 m
跨度 0.80 m
形状 Poly
制造商 NPOPM
平台类型 Strela-1 11F625
阶段状态 In Orbit
所有者/国家 UNKS/SU

Most Searched